Location: Zagreb
(45.8000°N, 16.0000°E)
Time: 20:44:02
(UTC+01:00)

deb Explorer IX - Pass Details

Date: 03 October 2020
Orbit: 537 x 1106 km, 38.8° (Epoch: 30 October)

Event Time Altitude Azimuth Distance (km) Brightness Sun altitude
Rises 16:56:31 0° 235° (SW) 3,378 ? 15.2°
Reaches altitude 10° 16:59:28 10° 225° (SW) 2,338 ? 14.8°
Maximum altitude 17:04:06 29° 167° (SSE) 1,281 ? 14.0°
Drops below altitude 10° 17:08:11 10° 107° (ESE) 2,036 ? 13.3°
Sets 17:10:35 0° 96° (E) 2,870 ? 13.0°
